Regional Weather Roundup
Issued by NWS Kansas City/Pleasant Hill, MO

Home | Current Version | Previous Version | Graphics & Text | Print | Product List | Glossary Off
Versions: 1 2 3 4 5 6 7 8 9 10 11 12 13 14 15 16 17 18 19 20 21 22 23 24 25 26 27

000
ASUS43 KEAX 191210
RWREAX

WEATHER ROUNDUP FOR EASTERN KANSAS AND NORTHWEST MISSOURI
NATIONAL WEATHER SERVICE KANSAS CITY/PLEASANT HILL MO
700 AM CDT THU APR 19 2018

KSZ040-057-103>105-MOZ028-029-037-043-191300-
...KANSAS CITY METROPOLITAN AREA...

CITY           SKY/WX    TMP DP  RH WIND       PRES   REMARKS
K.C. INTL      CLEAR     29  26  89 N7        30.37R WCI  22
6HR MIN TEMP:  28; 6HR MAX TEMP:  39;

K.C. DOWNTOWN  CLEAR     34  27  75 N8        30.38R WCI  27
6HR MIN TEMP:  33; 6HR MAX TEMP:  41;

LEES SUMMIT    CLEAR     32  28  85 N9        30.36R WCI  24
6HR MIN TEMP:  32; 6HR MAX TEMP:  39;

OLATHE - IXD   CLEAR     32  28  85 N10       30.37R WCI  24
6HR MIN TEMP:  31; 6HR MAX TEMP:  39;

OLATHE - OJC   CLEAR     33  28  81 N6        30.36R WCI  28
6HR MIN TEMP:  33; 6HR MAX TEMP:  37;

LAWRENCE       PTCLDY    32  27  81 N6        30.39R WCI  26

$$

MOZ001>008-011>017-020>025-030>033-038>040-044>046-053-054-191300-
...NORTHERN AND CENTRAL MISSOURI...

CITY           SKY/WX    TMP DP  RH WIND       PRES   REMARKS
ST. JOSEPH     CLEAR     25  24  96 CALM      30.40R
6HR MIN TEMP:  24; 6HR MAX TEMP:  40;

MOSBY            N/A     32  28  86 NW3       30.38R
WARRENSBURG    CLEAR     32  28  86 NW9       30.36R WCI  24
WHITEMAN AFB   PTCLDY    33  28  82 N10       30.31R WCI  24
6HR MIN TEMP:  33; 6HR MAX TEMP:  38;

CLINTON        CLEAR     32  28  86 N8        30.35R WCI  25
SEDALIA        CLEAR     33  28  81 N8        30.35R WCI  26
6HR MIN TEMP:  33; 6HR MAX TEMP:  39;

WARSAW         NOT AVBL
CHILLICOTHE      N/A     31  27  85 NW5       30.36R WCI  26
6HR MIN TEMP:  30; 6HR MAX TEMP:  38;

KIRKSVILLE     CLOUDY    29  28  96 NW6       30.32R WCI  23
6HR MIN TEMP:  28; 6HR MAX TEMP:  33;


$$

MOZ041-047>049-056>058-063>065-088>090-097-191300-
...EASTERN AND SOUTHERN MISSOURI...

CITY           SKY/WX    TMP DP  RH WIND       PRES   REMARKS
ST. LOUIS INTL MOCLDY    36  27  69 NW13      30.27R WCI  27
6HR MIN TEMP:  35; 6HR MAX TEMP:  40; 6HR PCP: TRACE;

SPIRIT OF STL  CLOUDY    37  27  67 NW14G20   30.28R WCI  28
COLUMBIA       CLEAR     31  25  78 NW7       30.32R WCI  24
JEFFERSON CITY CLOUDY    33  25  72 NW5       30.34R WCI  29
ROLLA          CLOUDY    31  26  82 NW9       30.30R WCI  23
OSAGE BEACH    CLOUDY    35  26  69 N6        30.33R WCI  30
SPRINGFIELD    CLOUDY    39  30  70 N14       30.29R WCI  31
BRANSON        MOCLDY    36  25  64 NW7       30.30R WCI  30
JOPLIN         CLOUDY    35  29  78 NW9       30.35R WCI  28
WEST PLAINS    CLOUDY    38  26  62 N10       30.26R WCI  31

$$

IAZ060-094-KSZ022-034>040-054-083-096-NEZ052-066-093-191300-
...KANSAS...SOUTHEAST NEBRASKA AND IOWA...

CITY           SKY/WX    TMP DP  RH WIND       PRES   REMARKS
TOPEKA         PTCLDY    33  27  78 N7        30.39R WCI  27
6HR MIN TEMP:  33; 6HR MAX TEMP:  38;

MANHATTAN      CLEAR     32  27  81 W3        30.41R
EMPORIA        PTCLDY    30  26  85 NW8       30.38R WCI  22
CHANUTE        CLOUDY    35  28  75 NW8       30.37R WCI  29
WICHITA        CLEAR     35  28  75 NW10      30.39R WCI  27
OMAHA          CLEAR     28  25  88 NW5       30.40R WCI  23
LINCOLN        CLEAR     28  27  96 N3        30.41R
FALLS CITY     CLEAR     27  24  89 NW5       30.40R WCI  22
LAMONI         CLEAR     26  24  92 NW7       30.34R WCI  18
DES MOINES     PTCLDY    33  27  78 N8        30.34R WCI  26

$$





USA.gov is the U.S. government's official web portal to all federal, state and local government web resources and services.